Kezdőlap
METAR-TAF:

METAR-TAF

Repülőterek :

Litchfield Municipal Airport

Litchfield, Illinois, Amerikai Egyesült Államok

földrajzi szélesség: 39-09-44N, földrajzi hosszúság: 089-40-28W, magasság: 210 m

Jelenlegi meteorológiai megfigyelések

A jelentés 14 perccel ezelõtt készült, 09:15 UTC
Délkeleti szél 8 kt
Hőmérséklet 13°C
Páratartalom 94%
Légköri nyomás 998 hPa
Látótávolság: 11.3 km
Derült ég

METAR: K3LF 270915Z AUTO 14008KT 7SM CLR 13/12 A2948 RMK AO2 T01340118

Idő: 03:29 (09:29 UTC)


TAF: hiányzik

Meteorológiai megfigyelések és előrejelzések több, mint 4000 repülőtéren (METAR és TAF jelentéseket).

A térképen piros és sárga pontok jelzik az elérhető meteorológiai állomásokat.

Mozgassa az egeret a pont fölött, hogy megjelenjen az állomás neve.

Azután kattintson az időjárási megfigyelések és előrejelzések megtekintéséhez.

A térkép megváltoztatása: kattintson a fekete keresztel jelölt zöld gombra ráközelítéshez, a vonallal jelölt zöld gombra távolításhoz, vagy a zöld nyilakra a szomszédos térképek eléréséhez.


METAR-TAF: